Home > Weather > Harstad > Past weeks

Flag for Norway Past Weather in Harstad, Norway — Yesterday and Last 2 Weeks

Now
48 °F

Overcast.


Feels Like: 46 °F
Forecast: 46 / 55 °F
Wind: 6 mph from North

Location: Evenes

Current Time: Jun 26, 2016 at 1:12:42 AM

Latest Report: Jun 26, 2016 at 12:20 AM


Visibility: N/A

Pressure: 30.12 "Hg

Humidity: 87%

Dew Point: 45 °F

Location of HarstadLocation

Past Weather in Harstad — Graph

°F

Harstad Temperature Yesterday

Maximum temperature yesterday: 61 °F (at 1:20 PM)
Minimum temperature yesterday: 45 °F (at 1:20 AM)
Average temperature yesterday: 52 °F

High & Low Weather Summary for the Past Weeks

 TemperatureHumidityPressure
High61 °F (Jun 21, 11:50 AM)100% (Jun 18, 6:50 AM)30.12 "Hg (Jun 18, 6:50 AM)
Low41 °F (Jun 11, 1:20 AM)48% (Jun 25, 1:20 PM)29.71 "Hg (Jun 14, 12:50 AM)
Average48 °F81%29.88 "Hg
* Reported Jun 10 11:20 PM — Jun 25 11:50 PM, Harstad, Weather by CustomWeather, © 2016

Note: Actual official high and low records may vary slightly from our data, if they occured in-between our weather recording intervals... More about our weather records

Advertising

Harstad Weather History for the Previous 24 Hours

Scroll right to see more
 ConditionsComfort  
Time TempWeatherWind HumidityBarometerVisibility
11:50 PM
Sat, Jun 25
50 °FOvercast.5 mph88%30.12 "HgN/A
11:20 PM50 °FOvercast.5 mph88%30.09 "HgN/A
10:50 PM50 °FMore clouds than sun.3 mph88%30.09 "HgN/A
10:20 PM50 °FMostly cloudy.3 mph82%30.09 "HgN/A
9:50 PM50 °FMore clouds than sun.5 mph88%30.09 "HgN/A
9:20 PM50 °FOvercast.5 mph88%30.09 "HgN/A
8:50 PM52 °FPartly sunny.5 mph82%30.07 "HgN/A
7:50 PM52 °FPartly sunny.6 mph82%30.07 "HgN/A
6:50 PM52 °FPartly sunny.7 mph82%30.07 "HgN/A
5:50 PM54 °FBroken clouds.9 mph82%30.04 "HgN/A
4:50 PM57 °FBroken clouds.9 mph67%30.04 "HgN/A
3:50 PM57 °FBroken clouds.10 mph72%30.01 "HgN/A
3:20 PM57 °FOvercast.10 mph67%30.01 "HgN/A
2:50 PM57 °FOvercast.9 mph67%30.01 "HgN/A
2:20 PM59 °FOvercast.10 mph59%30.01 "HgN/A
1:50 PM61 °FOvercast.9 mph55%29.98 "HgN/A
1:20 PM61 °FPassing clouds.8 mph48%29.98 "HgN/A
12:50 PM59 °FOvercast.8 mph51%29.98 "HgN/A
12:20 PM59 °FOvercast.6 mph59%29.98 "HgN/A
11:50 AM59 °FPartly sunny.3 mph63%29.98 "HgN/A
10:50 AM59 °FPartly sunny.No wind68%29.98 "HgN/A
9:50 AM55 °FPartly sunny.No wind72%29.98 "HgN/A
8:50 AM52 °FPartly sunny.3 mph82%29.98 "HgN/A
7:50 AM50 °FPartly sunny.5 mph88%29.98 "HgN/A
6:50 AM50 °FPartly sunny.7 mph88%29.98 "HgN/A
5:50 AM48 °FPartly sunny.7 mph94%29.98 "HgN/A
5:20 AM48 °FOvercast.5 mph94%29.98 "HgN/A
4:50 AM46 °FOvercast.5 mph100%29.98 "HgN/A
4:20 AM46 °FOvercast.5 mph93%29.98 "HgN/A
3:50 AM45 °FOvercast.5 mph100%29.98 "HgN/A
3:20 AM45 °FOvercast.2 mph93%30.01 "HgN/A
2:50 AM45 °FOvercast.No wind93%30.01 "HgN/A
2:20 AM45 °FOvercast.2 mph93%30.01 "HgN/A
1:50 AM45 °FFog.1 mph93%30.01 "Hg4 mi
1:20 AM45 °FPassing clouds.1 mph93%30.01 "HgN/A
Weather by CustomWeather, © 2016

See weather overviewHow to use our weather pages